sat.trackr.live / text

‹ back to catalog

STARLINK-6092

NORAD 56121 · 2023-046AE

PAYLOAD ACTIVE UNKNOWN

§ Identity

Operator
Country
US
Launch date
2023-03-29
Launch site
AFETR
Launch vehicle
Mass (kg)
RCS (m²)

Purposes: comms

External: N2YO · Heavens-Above · Gunter

§ Orbital elements

Epoch: 2026-09-20T07:38:39.651936Z

Period
94.27 min
Inclination
43.0012°
Eccentricity
0.0001153
Mean motion
15.27575212 rev/d
Perigee alt
482.3 km
Apogee alt
483.9 km
Semi-major
6,861.2 km
B*
8.8614e-6
RAAN
128.0399°
Arg perigee
251.9143°
Mean anomaly
108.1583°
Rev number
19,196

§ Raw data

STARLINK-60921 56121U 23046AE  26263.31851449 -.00000018  00000+0  88614-5 0  99952 56121  43.0012 128.0399 0001153 251.9143 108.1583 15.27575212191963

JSON: /api/v1/satellites/56121 · /tle

For live sub-satellite position, see the globe view (requires WebGL).

§ Visibility from observer

Set your observer location to see the next 7 days of passes ≥ 10°. The values pass through the URL so the page stays shareable.

No JS? Fill the form by hand. The geolocation button needs JavaScript.